OBJECT E, 63986

Orbit data source: Space-Track

You're viewing an Uncataloged Satellite

Recently launched and/or uncataloged satellites may have evolving metadata. Metadata may include but not limited to: Owner, Maufacturer, Bus, Motor, and Mission.

OBJECT E, 63986 is a Chinese satellite in SSO that was launched on Wed, 14 May 2025 UTC via a CHANG ZHENG 2D launch vehicle from the Jiuquan Satellite Launch Center, China (JSC). Unknown objects in Earth's orbit typically refer to objects detected orbiting the Earth but have not yet been identified or cataloged. These objects could be anything from previously untracked satellites, spent rocket stages, debris from satellite collisions, or even natural meteoroids temporarily captured by Earth's gravity.

Loading next visibility...
Identifier
63986, 2025-100E
Orbit
SSO
Country
Flag of CNCN / PRC
Related business
None
Manufacturer
Unknown
Mission
Operational Commercial Technology
Bus & Motor
Unknown
Mass
Unknown
Launch date (UTC)
2025-05-14 (1 year ago)
Launch vehicle
CHANG ZHENG 2D
Launch site
Jiuquan Satellite Launch Center, China (JSC)
Object type
Unknown
Shape & HBR
Box + 2 Pan, 1.0 m
Radar Cross Section
0.135 m², Large (>1 m²)

Expand to show TLE details & history
Last TLE update: 13 hours ago

TLE from 13 hours ago
0 OBJECT E
1 63986U 25100E   26197.80984201  .00007155  00000-0  32760-3 0  9996
2 63986  97.3616 269.8612 0010662 204.0899 155.9839 15.20747794 34954
Epoch: 2026-07-16T19:26Z
TLE epoch observation values (Epoch: 2026-07-16T19:26:10.349Z)
Latitude
-0.00007°
Longitude
43.67213°
Altitude
513.381 km
Speed
7.603 km/s
True Right ascension
17h 59m 26s
True Declination
0° 00' 00"
Sunlit
Object was in full shadow at epoch
Visualization orbit readout
Latitude
Unknown
Longitude
Unknown
Altitude
Unknown
Speed
Unknown
Apparent Right ascension
Unknown
Apparent Declination
Unknown
Sunlit
N/A
Visualization observer readout
Local Sidereal Time
20:37:56
Azimuth
Unknown
Elevation
Unknown
Doppler factor
Unknown
Orbital elements
Apogee altitude
507.881 km
Perigee altitude
493.213 km
Semi-major axis
6,878.684 km
Eccentricity
0.00107
Inclination
97.3616°
RAAN
269.8612°
Arg. of periapsis
204.0899°
True anomaly
156.03356°
Mean anomaly
155.9839°
Eccentric anomaly
156.00874°
Mean motion
3.80439 °/min
Orbital period
94.63 mins
BSTAR
0.0003276
Loading maneuver chart data...
Computing Atmospheric mass density...
Loading historical data...
Loading historical data...
Loading historical data...
Loading historical data...
Loading historical data...
Loading historical data...
Loading historical data...

Documentation

Showing up to 5 results
|